ANZ5MK EHAM-EDDG

Flight info

Callsign ANZ5MK
Flight time N/A
Altitude 17000
Route ARNEM2V ARNEM L620 SONEB Z841 MEVEL DCT
Aircraft A21N/M-SDE2E3FGHIRWXY/LB1

Departure

Time 2026-04-27 18:22
Airport Amsterdam Airport Schiphol (EHAM)

Arrival

Time N/A
Airport Münster Osnabrück Airport (EDDG)
Time Latitude Longitude Altitude Speed Heading
2026-04-27 17:58 52.31280 4.74761 2 ft 0 kts 94°
2026-04-27 18:06 52.31281 4.74739 4 ft 3 kts 94°
2026-04-27 18:06 52.31282 4.74709 4 ft 3 kts 94°
2026-04-27 18:06 52.31283 4.74679 3 ft 3 kts 94°
2026-04-27 18:07 52.31285 4.74649 3 ft 3 kts 90°
2026-04-27 18:07 52.31280 4.74620 4 ft 3 kts 49°
2026-04-27 18:07 52.31267 4.74600 5 ft 3 kts 39°
2026-04-27 18:07 52.31252 4.74583 5 ft 3 kts 18°
2026-04-27 18:08 52.31241 4.74579 5 ft 0 kts 13°
2026-04-27 18:09 52.31257 4.74582 4 ft 7 kts
2026-04-27 18:10 52.31338 4.74592 2 ft 15 kts
2026-04-27 18:10 52.31386 4.74607 2 ft 0 kts 17°
2026-04-27 18:10 52.31387 4.74607 2 ft 0 kts 16°
2026-04-27 18:10 52.31390 4.74602 2 ft 1 kts 321°
2026-04-27 18:11 52.31390 4.74599 2 ft 0 kts 306°
2026-04-27 18:11 52.31392 4.74583 2 ft 4 kts 282°
2026-04-27 18:11 52.31397 4.74503 1 ft 7 kts 272°
2026-04-27 18:12 52.31397 4.74453 1 ft 0 kts 267°
2026-04-27 18:12 52.31397 4.74450 1 ft 2 kts 267°
2026-04-27 18:12 52.31396 4.74357 2 ft 13 kts 277°
2026-04-27 18:12 52.31476 4.74288 3 ft 17 kts
2026-04-27 18:13 52.31612 4.74303 3 ft 21 kts
2026-04-27 18:13 52.31765 4.74315 0 ft 23 kts
2026-04-27 18:13 52.31929 4.74332 -3 ft 24 kts
2026-04-27 18:13 52.32028 4.74264 -3 ft 8 kts 274°
2026-04-27 18:14 52.32031 4.74181 -3 ft 9 kts 274°
2026-04-27 18:14 52.32036 4.74075 -2 ft 4 kts 274°
2026-04-27 18:14 52.32038 4.74033 -2 ft 5 kts 275°
2026-04-27 18:14 52.32044 4.73922 0 ft 14 kts 275°
2026-04-27 18:15 52.32054 4.73720 3 ft 22 kts 272°
2026-04-27 18:15 52.32064 4.73471 5 ft 15 kts 281°
2026-04-27 18:15 52.32097 4.73349 4 ft 10 kts 309°
2026-04-27 18:15 52.32150 4.73271 3 ft 11 kts 319°
2026-04-27 18:16 52.32216 4.73178 2 ft 16 kts 319°
2026-04-27 18:16 52.32314 4.73043 -1 ft 21 kts 319°
2026-04-27 18:16 52.32430 4.72875 0 ft 23 kts 318°
2026-04-27 18:16 52.32551 4.72706 0 ft 23 kts 319°
2026-04-27 18:17 52.32643 4.72576 2 ft 15 kts 318°
2026-04-27 18:17 52.32709 4.72461 -1 ft 16 kts 313°
2026-04-27 18:17 52.32800 4.72300 4 ft 16 kts 309°
2026-04-27 18:17 52.32878 4.72152 0 ft 18 kts 310°
2026-04-27 18:18 52.32962 4.71996 0 ft 20 kts 314°
2026-04-27 18:18 52.33064 4.71810 1 ft 22 kts 310°
2026-04-27 18:18 52.33150 4.71610 2 ft 20 kts 278°
2026-04-27 18:18 52.33145 4.71403 2 ft 17 kts 299°
2026-04-27 18:19 52.33222 4.71262 1 ft 17 kts 312°
2026-04-27 18:19 52.33293 4.71127 -1 ft 8 kts 310°
2026-04-27 18:19 52.33296 4.71121 -1 ft 0 kts 311°
2026-04-27 18:20 52.33322 4.71072 -1 ft 12 kts 311°
2026-04-27 18:20 52.33379 4.70975 0 ft 12 kts 321°
2026-04-27 18:20 52.33442 4.70938 0 ft 0 kts
2026-04-27 18:21 52.33443 4.70938 0 ft 2 kts
2026-04-27 18:21 52.33581 4.70947 3 ft 50 kts
2026-04-27 18:21 52.34136 4.71005 -1 ft 103 kts
2026-04-27 18:21 52.34877 4.71054 358 ft 99 kts
2026-04-27 18:22 52.35501 4.71047 806 ft 90 kts
2026-04-27 18:22 52.36232 4.71213 955 ft 116 kts 17°
2026-04-27 18:22 52.36881 4.71559 1698 ft 87 kts 12°
2026-04-27 18:22 52.37548 4.71889 1762 ft 120 kts 22°
2026-04-27 18:23 52.38380 4.72213 2438 ft 113 kts 15°